Flag for Germany Weather past 2 weeks in Mönchengladbach, North Rhine-Westphalia, Germany

Now
66 °F

Passing clouds.


Feels Like: 66 °F
Forecast: 46 / 69 °F
Wind: 7 mph from North

Location: Monchengladbach Airport

Current Time: May 23, 2015 at 2:07:33 PM

Latest Report: May 23, 2015 at 1:20 PM


Visibility: N/A

Pressure: 30.15 "Hg

Humidity: 52%

Dew point: 48 °F

Location of MönchengladbachLocation

Historic Weather in Mönchengladbach — Graph

°F

Mönchengladbach temperature yesterday

Maximum temperature yesterday: 70 °F (at 4:50 PM)
Minimum temperature yesterday: 52 °F (at 7:20 AM)
Average temperature yesterday: 64 °F

Past Weeks' High & Low Weather Summary

 TemperatureHumidityPressure
High81 °F (May 11, 4:50 PM)100% (May 16, 2:50 PM)30.33 "Hg (May 16, 2:50 PM)
Low41 °F (May 21, 6:20 AM)30% (May 11, 4:50 PM)29.65 "Hg (May 18, 6:20 PM)
Average61 °F56%30.07 "Hg
* Reported May 8 12:20 PM — May 23 12:50 PM, Mönchengladbach, Weather by CustomWeather, © 2015

Note: Actual official high and low records may vary slightly from our data, if they occured in-between our weather recording intervals... More about our weather records

Advertising

Mönchengladbach weather history for previous 24 hours

 ConditionsComfort  
Time TempWeatherWind HumidityBarometerVisibility
12:50 PM
Sat, May 23
66 °FPassing clouds.8 mph46%30.15 "HgN/A
12:20 PM66 °FPassing clouds.9 mph49%30.15 "HgN/A
11:50 AM64 °FPassing clouds.7 mph46%30.15 "HgN/A
11:20 AM63 °FPassing clouds.5 mph52%30.15 "HgN/A
10:50 AM63 °FSunny.2 mph56%30.18 "Hg10 mi
10:20 AM61 °FPassing clouds.5 mph63%30.18 "HgN/A
9:50 AM59 °FPassing clouds.6 mph72%30.18 "HgN/A
9:20 AM57 °FPassing clouds.6 mph72%30.18 "HgN/A
8:50 AM57 °FSunny.6 mph72%30.18 "Hg10 mi
8:20 AM57 °FSunny.3 mph72%30.18 "Hg10 mi
7:50 AM55 °FSunny.3 mph77%30.18 "Hg10 mi
8:20 PM
Fri, May 22
66 °FClear.5 mph46%30.18 "Hg10 mi
7:50 PM66 °FClear.5 mph43%30.18 "Hg10 mi
7:20 PM66 °FClear.6 mph40%30.18 "Hg10 mi
6:50 PM70 °FClear.3 mph38%30.18 "Hg10 mi
6:20 PM68 °FClear.3 mph38%30.18 "Hg10 mi
5:50 PM68 °FClear.3 mph40%30.21 "Hg10 mi
5:20 PM70 °FClear.6 mph38%30.21 "Hg10 mi
4:50 PM70 °FClear.3 mph38%30.21 "Hg10 mi
4:20 PM68 °FClear.6 mph40%30.21 "Hg10 mi
3:50 PM68 °FClear.5 mph43%30.24 "Hg10 mi
3:20 PM66 °FClear.2 mph46%30.24 "Hg10 mi
2:50 PM66 °FClear.2 mph43%30.24 "Hg10 mi
2:20 PM66 °FClear.2 mph43%30.27 "Hg10 mi
Weather by CustomWeather, © 2015

See weather overviewHow to use our weather pages